Location: *
(38.4303°S, 157.0822°W)
Time: 14:12:36
(UTC+00:00)

Centaur D-1A AC-31 - Pass Details

Date: 21 May 2024
Orbit: 572 x 36344 km, 27.8° (Epoch: 22 June)

Event Time Altitude Azimuth Distance (km) Brightness Sun altitude
Exits shadow 16:00:45 - 324° (NW) 2,171 3.6 -17.1°
Reaches altitude 10° 16:01:36 10° 334° (NNW) 1,877 3.4 -16.9°
Maximum altitude 16:04:08 18° 23° (NNE) 1,606 3.6 -16.5°
Drops below altitude 10° 16:07:47 10° 68° (ENE) 2,812 5.8 -15.8°
Sets 16:13:07 0° 85° (E) 5,302 7.6 -14.7°
